[[{"header":{"parameterUnit":"m.s-1","parameterCategory":1,"la1":30.2991,"la2":30.254,"lo1":-89.0895,"lo2":-89.0444,"dy":0.0017,"dx":0.0017,"nx":28,"ny":28,"refTime":"2023-09-23T03:00:00:Z","depth":0,"parameterNumber":2,"parameterNumberName":"U-component_of_WINDS"},"data":[0,0,0,0,0,0,0,0,0,0,0,0,0,0,0,0,0,0,0,0,0,0,0,0,0,0,0,0,0,0,0,0,0,0,0,0,0,0,0,0,0,0,0,0,0,0,0,0,0,0,0,0,0,0,0,0,0,0,-1.3832,-1.3831,0,-1.3781,-1.378,-1.378,-1.371,-1.3709,-1.3708,-1.3707,-1.3654,-1.3654,-1.3653,0,0,0,0,0,0,0,0,0,0,0,0,0,-1.3869,-1.3869,-1.3832,-1.3831,-1.3831,-1.3781,-1.378,-1.378,-1.3711,-1.3709,-1.3708,-1.3706,-1.3654,-1.3654,-1.3653,0,0,0,0,0,0,0,0,0,0,0,0,0,-1.3839,-1.3869,-1.3832,-1.379,-1.3786,-1.3781,-1.378,-1.3779,-1.3711,-1.3709,-1.3707,-1.3706,-1.3654,-1.3654,-1.3653,-1.3685,0,0,-1.3652,-1.3651,0,0,0,0,0,0,0,0,-1.3841,-1.3838,-1.3797,-1.3793,-1.3788,-1.375,-1.3774,-1.3748,-1.3711,-1.3739,-1.3707,-1.3705,-1.3687,-1.3684,-1.3678,-1.3682,-1.368,-1.3652,-1.3651,-1.3651,-1.3651,0,0,0,0,0,0,0,-1.3843,-1.384,-1.3812,-1.3796,-1.3791,-1.3774,-1.3768,-1.3769,-1.3724,-1.3737,-1.3732,-1.3727,-1.3685,-1.3679,-1.3676,-1.3679,-1.3652,-1.3651,-1.3651,-1.3651,-1.3708,-1.3709,0,0,0,0,0,0,-1.3851,-1.3842,-1.3813,-1.381,-1.3811,-1.3775,-1.3768,-1.3764,-1.3723,-1.3716,-1.3728,-1.3724,-1.368,-1.3677,-1.3674,-1.3709,-1.3651,-1.3651,-1.365,-1.3706,-1.3708,-1.371,0,0,0,0,0,0,-1.3853,-1.385,-1.3815,-1.3825,-1.3819,-1.3776,-1.3772,-1.3764,-1.3758,-1.3717,-1.3708,-1.3731,-1.3679,-1.3675,-1.3683,-1.3706,-1.365,-1.365,-1.3704,-1.3707,-1.3709,-1.3779,0,0,0,0,0,0,-1.3854,-1.385,-1.3862,-1.3825,-1.3819,-1.3825,-1.3774,-1.3764,-1.3758,-1.3751,-1.3717,-1.371,-1.3677,-1.3684,-1.3682,-1.3704,-1.3649,-1.3701,-1.3705,-1.3708,-1.3774,-1.3784,-1.3792,0,0,0,0,0,-1.3856,-1.3883,-1.3863,-1.386,-1.3832,-1.3826,-1.3823,-1.3785,-1.376,-1.3771,-1.3745,-1.3711,-1.3704,-1.3685,-1.3683,-1.3705,-1.37,-1.3704,-1.3708,-1.377,-1.3782,-1.3791,0,0,0,0,0,0,-1.3923,-1.3878,-1.3855,-1.3871,-1.3853,-1.3815,-1.3828,-1.3798,-1.3787,-1.3781,-1.3735,-1.3728,-1.3742,-1.3724,-1.3704,-1.3734,-1.3697,-1.3701,-1.3745,-1.3756,-1.3764,-1.3768,-1.3649,0,0,0,0,0,-1.394,-1.3939,-1.39,-1.3918,-1.3911,-1.3871,-1.3867,-1.384,-1.3819,-1.3811,-1.3785,-1.3767,-1.376,-1.3757,-1.3749,-1.3772,-1.3763,-1.3786,-1.3795,-1.3802,-1.3806,-1.3817,-1.3827,-1.3723,-1.3723,-1.3723,0,0,-1.3975,-1.395,-1.3952,-1.3931,-1.3914,-1.3915,-1.3865,-1.3867,-1.3867,-1.3811,-1.3818,-1.3798,-1.3774,-1.379,-1.3796,-1.3776,-1.3832,-1.3807,-1.3813,-1.3813,-1.3822,-1.3832,-1.3841,-1.3726,-1.3726,-1.3725,0,0,-1.4038,-1.402,-1.4033,-1.4018,-1.3992,-1.3966,-1.397,-1.3936,-1.3921,-1.3927,-1.3885,-1.3884,-1.3874,-1.3859,-1.385,-1.391,-1.3878,-1.3908,-1.3953,-1.3965,-1.3973,-1.398,-1.4002,-1.401,-1.3912,-1.3912,-1.3912,0,-1.4085,-1.4084,-1.4044,-1.4049,-1.4041,-1.3992,-1.4006,-1.3992,-1.3966,-1.3961,-1.394,-1.3927,-1.3907,-1.3919,-1.3934,-1.3928,-1.3931,-1.3912,-1.3975,-1.3982,-1.3988,-1.4008,-1.4016,-1.3916,-1.3916,-1.3915,-1.3915,0,-1.4142,-1.4142,-1.4156,-1.4133,-1.4126,-1.4136,-1.4098,-1.4096,-1.407,-1.4046,-1.4053,-1.4028,-1.4014,-1.4015,-1.3989,-1.4024,-1.4012,-1.3984,-1.3945,-1.4002,-1.402,-1.4027,-1.3922,-1.392,-1.3919,-1.3918,0,0,-1.4246,-1.4201,-1.4207,-1.4196,-1.4165,-1.4164,-1.4172,-1.4159,-1.4159,-1.4143,-1.4148,-1.4142,-1.4115,-1.4105,-1.4077,-1.4088,-1.4137,-1.4058,-1.4056,-1.4073,-1.4174,-1.4195,-1.4205,-1.4116,-1.4117,-1.4118,-1.4176,0,-1.4303,-1.4313,-1.4279,-1.4298,-1.4298,-1.4251,-1.4258,-1.424,-1.4219,-1.4215,-1.4191,-1.4187,-1.4153,-1.4146,-1.4155,-1.4129,-1.4156,-1.4125,-1.412,-1.4121,-1.4128,-1.4214,-1.4236,-1.4292,-1.4182,-1.4184,-1.4184,0,-1.4371,-1.436,-1.4379,-1.4348,-1.4347,-1.4354,-1.4339,-1.4337,-1.4316,-1.4299,-1.4289,-1.4257,-1.4263,-1.4227,-1.4233,-1.4213,-1.4209,-1.4197,-1.4198,-1.4196,-1.4156,-1.4214,-1.4308,-1.4317,-1.4195,-1.4194,-1.4193,0,-1.4445,-1.4434,-1.4444,-1.4437,-1.4401,-1.4407,-1.4392,-1.437,-1.4364,-1.4352,-1.4348,-1.4337,-1.4331,-1.4323,-1.4289,-1.4265,-1.43,-1.4261,-1.4286,-1.4288,-1.4295,-1.4295,-1.439,-1.4294,-1.4294,-1.4293,-1.4293,0,-1.4513,-1.4527,-1.4477,-1.4484,-1.4498,-1.4458,-1.4473,-1.4454,-1.4435,-1.4437,-1.4396,-1.4399,-1.4354,-1.4352,-1.4326,-1.4336,-1.4333,-1.432,-1.4313,-1.4323,-1.4325,-1.432,-1.4315,-1.4296,-1.4295,-1.4295,-1.4294,0,-1.4597,-1.4565,-1.4573,-1.4539,-1.4531,-1.4543,-1.4514,-1.4519,-1.4495,-1.4498,-1.4497,-1.4459,-1.4455,-1.4421,-1.4408,-1.439,-1.4411,-1.4396,-1.4418,-1.4413,-1.4441,-1.4439,-1.4536,-1.4546,-1.4443,-1.4444,-1.4445,0,-1.4642,-1.4652,-1.4619,-1.4618,-1.4606,-1.4604,-1.4599,-1.456,-1.4556,-1.4534,-1.4542,-1.4534,-1.4526,-1.4521,-1.4493,-1.4484,-1.4468,-1.4503,-1.4466,-1.4477,-1.4469,-1.4469,-1.4469,-1.4511,-1.4512,-1.4513,-1.4514,0,-1.4726,-1.471,-1.4704,-1.4693,-1.4688,-1.4677,-1.4664,-1.4665,-1.4623,-1.4621,-1.4616,-1.461,-1.4598,-1.4591,-1.4577,-1.4562,-1.4531,-1.4526,-1.4531,-1.4542,-1.4554,-1.4548,-1.4439,-1.4523,-1.4522,-1.4522,-1.4521,-1.4521,-1.4791,-1.4798,-1.4777,-1.4772,-1.4758,-1.4747,-1.475,-1.4727,-1.4723,-1.471,-1.4688,-1.4687,-1.4667,-1.4645,-1.4632,-1.4631,-1.4613,-1.4621,-1.4623,-1.4625,-1.4631,-1.4555,-1.4628,-1.4628,-1.4628,-1.4627,-1.4627,0,-1.4873,-1.4857,-1.4853,-1.4836,-1.4833,-1.4805,-1.4789,-1.4788,-1.4788,-1.4772,-1.4765,-1.476,-1.4754,-1.4726,-1.4716,-1.472,-1.4706,-1.4719,-1.4718,-1.4715,-1.4648,-1.4644,-1.4731,-1.4731,-1.4731,-1.4731,-1.4731,-1.4731,-1.4915,-1.4925,-1.4906,-1.491,-1.4893,-1.4892,-1.4886,-1.4876,-1.4863,-1.4859,-1.4854,-1.4836,-1.4815,-1.4804,-1.4797,-1.4789,-1.4788,-1.4806,-1.4793,-1.473,-1.472,-1.4711,-1.4707,-1.4806,-1.4806,-1.4861,-1.4861,-1.4862]},{"header":{"parameterUnit":"m.s-1","parameterCategory":1,"la1":30.2991,"la2":30.254,"lo1":-89.0895,"lo2":-89.0444,"dy":0.0017,"dx":0.0017,"nx":28,"ny":28,"refTime":"2023-09-23T03:00:00:Z","depth":0,"parameterNumber":3,"parameterNumberName":"V-component_of_WINDS"},"data":[0,0,0,0,0,0,0,0,0,0,0,0,0,0,0,0,0,0,0,0,0,0,0,0,0,0,0,0,0,0,0,0,0,0,0,0,0,0,0,0,0,0,0,0,0,0,0,0,0,0,0,0,0,0,0,0,0,0,0.5129,0.5129,0,0.5149,0.5149,0.515,0.5154,0.5154,0.5154,0.5154,0.5174,0.5174,0.5175,0,0,0,0,0,0,0,0,0,0,0,0,0,0.509,0.509,0.5128,0.5129,0.5129,0.5149,0.5149,0.515,0.5154,0.5154,0.5154,0.5154,0.5173,0.5174,0.5175,0,0,0,0,0,0,0,0,0,0,0,0,0,0.5108,0.5091,0.5128,0.5134,0.5135,0.5149,0.5149,0.515,0.5155,0.5154,0.5154,0.5154,0.5173,0.5174,0.5175,0.5185,0,0,0.5178,0.5178,0,0,0,0,0,0,0,0,0.5107,0.511,0.5133,0.5134,0.5134,0.5149,0.5143,0.5162,0.5155,0.5147,0.5154,0.5154,0.5165,0.5167,0.5171,0.5186,0.5187,0.5178,0.5179,0.5179,0.5179,0,0,0,0,0,0,0,0.5106,0.5109,0.5137,0.5133,0.5134,0.5134,0.5137,0.5147,0.5157,0.5148,0.5148,0.515,0.5166,0.517,0.5172,0.5187,0.5178,0.5179,0.5179,0.518,0.5209,0.5209,0,0,0,0,0,0,0.5104,0.5108,0.5136,0.5137,0.512,0.5135,0.5138,0.5145,0.5157,0.5159,0.5151,0.5151,0.5169,0.5171,0.5173,0.5184,0.5179,0.518,0.518,0.5209,0.5209,0.5209,0,0,0,0,0,0,0.5103,0.5106,0.5135,0.5123,0.5126,0.5136,0.5144,0.5145,0.515,0.5159,0.5161,0.5154,0.5169,0.5171,0.5182,0.5185,0.518,0.5181,0.5208,0.5209,0.5209,0.5207,0,0,0,0,0,0,0.5102,0.5106,0.5111,0.5123,0.5127,0.5145,0.5144,0.5146,0.5152,0.5152,0.5162,0.5164,0.5169,0.518,0.5182,0.5186,0.5182,0.5208,0.5208,0.5209,0.5207,0.5208,0.5208,0,0,0,0,0,0.5101,0.511,0.5111,0.5115,0.5133,0.5145,0.5147,0.5153,0.5152,0.5156,0.5162,0.5164,0.5184,0.5181,0.5184,0.5188,0.5208,0.5208,0.5209,0.5207,0.5208,0.5208,0,0,0,0,0,0,0.5099,0.5112,0.5113,0.5127,0.5135,0.5146,0.5152,0.5154,0.5162,0.5162,0.5168,0.517,0.518,0.5185,0.5181,0.5197,0.5196,0.5197,0.5193,0.5194,0.5194,0.5193,0.5183,0,0,0,0,0,0.51,0.5109,0.512,0.513,0.5134,0.5142,0.5148,0.5151,0.5159,0.5163,0.5169,0.5177,0.5184,0.5189,0.5197,0.5208,0.5209,0.5212,0.5212,0.5212,0.5213,0.5217,0.5218,0.521,0.521,0.521,0,0,0.5102,0.511,0.5116,0.513,0.5137,0.5145,0.5145,0.5154,0.516,0.5164,0.5174,0.5179,0.5187,0.5197,0.5202,0.5202,0.5215,0.5213,0.5213,0.5213,0.5217,0.5218,0.5219,0.5211,0.5211,0.5211,0,0,0.5111,0.5119,0.5128,0.5134,0.5144,0.5148,0.515,0.5161,0.5164,0.5174,0.5177,0.5183,0.5197,0.5202,0.5207,0.5215,0.5216,0.5217,0.5219,0.5223,0.5224,0.5224,0.5226,0.5227,0.5218,0.5218,0.5218,0,0.5112,0.5126,0.5132,0.514,0.5146,0.5149,0.5158,0.5163,0.5175,0.5178,0.5177,0.5193,0.5199,0.521,0.5212,0.5216,0.5217,0.5216,0.5223,0.5224,0.5224,0.5226,0.5227,0.5218,0.5218,0.5218,0.5218,0,0.5126,0.5135,0.5141,0.5152,0.5158,0.5167,0.5173,0.5178,0.518,0.5185,0.5194,0.5201,0.5209,0.5212,0.5215,0.5222,0.5222,0.5222,0.5221,0.5225,0.5226,0.5227,0.5218,0.5218,0.5218,0.5218,0,0,0.5136,0.5148,0.515,0.5155,0.5165,0.5171,0.5179,0.5187,0.5191,0.5198,0.5204,0.5214,0.5214,0.5219,0.5222,0.5226,0.523,0.5225,0.5226,0.5225,0.5237,0.5237,0.5237,0.5231,0.5231,0.5231,0.5236,0,0.5145,0.5159,0.5164,0.5175,0.5183,0.5185,0.5191,0.5197,0.5201,0.5207,0.5211,0.5218,0.5218,0.5221,0.5224,0.5229,0.5232,0.5228,0.5235,0.5235,0.5233,0.5238,0.5238,0.5243,0.5237,0.5237,0.5237,0,0.5158,0.5165,0.5177,0.5184,0.5187,0.5193,0.52,0.5206,0.5213,0.5215,0.522,0.5222,0.5228,0.5227,0.5235,0.5232,0.5235,0.5237,0.5238,0.5238,0.5236,0.5239,0.5244,0.5245,0.5238,0.5238,0.5238,0,0.5161,0.5174,0.5183,0.5186,0.5195,0.5199,0.5203,0.5209,0.5213,0.5219,0.5221,0.5228,0.5231,0.5235,0.5239,0.5237,0.5246,0.5245,0.5248,0.5248,0.525,0.5249,0.5255,0.5252,0.5252,0.5252,0.5252,0,0.5171,0.5178,0.5184,0.5189,0.5197,0.5201,0.5208,0.5212,0.5217,0.5222,0.5224,0.5229,0.5233,0.5238,0.5241,0.5246,0.5248,0.5249,0.525,0.5249,0.5249,0.5251,0.5251,0.5252,0.5252,0.5252,0.5252,0,0.5176,0.5181,0.519,0.5198,0.52,0.5205,0.521,0.5215,0.5218,0.5224,0.5226,0.5231,0.5237,0.524,0.5248,0.5249,0.5255,0.5256,0.5253,0.5254,0.5255,0.5255,0.5263,0.5264,0.526,0.526,0.526,0,0.5182,0.5187,0.5195,0.5198,0.5202,0.5208,0.5212,0.5216,0.522,0.5226,0.5229,0.5235,0.524,0.5249,0.5252,0.5257,0.5258,0.526,0.5259,0.5257,0.5257,0.5257,0.5257,0.5261,0.5261,0.5261,0.5261,0,0.519,0.5192,0.5198,0.5204,0.5209,0.5214,0.5219,0.5221,0.5226,0.523,0.5236,0.5239,0.5246,0.5251,0.5256,0.5259,0.526,0.5261,0.5262,0.5261,0.5259,0.5259,0.5253,0.5261,0.5261,0.5261,0.5261,0.5261,0.5196,0.52,0.5205,0.5211,0.5215,0.5219,0.5224,0.5227,0.5232,0.5238,0.524,0.5245,0.525,0.5257,0.526,0.5263,0.5263,0.5264,0.5265,0.5265,0.5264,0.5258,0.5264,0.5264,0.5264,0.5264,0.5264,0,0.5203,0.5207,0.5212,0.5219,0.5223,0.5224,0.5229,0.5232,0.5237,0.5241,0.5246,0.5251,0.5256,0.526,0.5264,0.5266,0.5267,0.5267,0.5267,0.5268,0.5265,0.5263,0.5267,0.5267,0.5267,0.5267,0.5267,0.5267,0.5208,0.5215,0.5217,0.5225,0.5228,0.5234,0.5236,0.524,0.5243,0.5249,0.5253,0.5256,0.5259,0.5264,0.5268,0.5269,0.527,0.527,0.5271,0.5268,0.5268,0.5268,0.5266,0.5271,0.5271,0.5274,0.5274,0.5274]}]]